Weather History for Coeur d'Alene, ID

Change the Weather History Date:

Tuesday, March 25, 2014

  Actual Average Record
Temperature  
Mean Temperature 43 °F -  
Max Temperature 53 °F 48 °F 62 °F (1997)
Min Temperature 33 °F 30 °F 21 °F (2008)
Degree Days  
Heating Degree Days 22    
Moisture  
Dew Point 27 °F    
Average Humidity 55    
Maximum Humidity 70    
Minimum Humidity 40    
Precipitation  
Precipitation 0.00 in - - ()
Sea Level Pressure  
Sea Level Pressure 29.74 in    
Wind  
Wind Speed 11 mph (ENE)    
Max Wind Speed 20 mph    
Max Gust Speed 31 mph    
Visibility 10 miles    
Events      
Averages and records for this station are not official NWS values.
T = Trace of Precipitation, MM = Missing Value Source: NWS Daily Summary

Daily Weather History Graph

Daily Weather History Graph

Search for Another Location

Airport:

Trip Planner

Search our weather history database for the weather conditions in past years. The results will help you decide how hot, cold, wet, or windy it might be!

Date:

Astronomy

Mar. 25, 2014 Rise Set
Actual Time 6:39 AM PDT 7:07 PM PDT
Civil Twilight 6:08 AM PDT 7:38 PM PDT
Nautical Twilight 5:32 AM PDT 8:15 PM PDT
Astronomical Twilight 4:54 AM PDT 8:53 PM PDT
Moon 3:26 AM PDT 1:22 PM PDT
Length of Visible Light 13h 29m
Length of Day
12h 27m
Waning Crescent, 31% of the Moon is Illuminated
Mar 25
Waning Crescent
Mar 30
New
Apr 7
First Quarter
Apr 15
Full
Apr 22
Last Quarter

Hourly Weather History & Observations

Time (PDT) Temp. Windchill Dew Point Humidity Pressure Visibility Wind Dir Wind Speed Gust Speed Precip Events Conditions
12:15 AM 33.8 °F 27.7 °F 23.0 °F 65% 30.01 in 10.0 mi ENE 6.9 mph - N/A   Clear
12:35 AM 33.8 °F 26.4 °F 21.2 °F 60% 30.00 in 10.0 mi NE 9.2 mph - N/A   Clear
12:55 AM 35.6 °F 27.5 °F 23.0 °F 60% 29.99 in 10.0 mi ENE 11.5 mph - N/A   Clear
1:15 AM 33.8 °F 25.3 °F 21.2 °F 60% 29.98 in 10.0 mi NE 11.5 mph - N/A   Clear
1:35 AM 35.6 °F 27.1 °F 21.2 °F 56% 29.98 in 10.0 mi NE 12.7 mph - N/A   Clear
1:55 AM 35.6 °F 28.0 °F 23.0 °F 60% 29.97 in 10.0 mi ENE 10.4 mph - N/A   Clear
2:15 AM 35.6 °F 28.0 °F 21.2 °F 56% 29.97 in 10.0 mi NE 10.4 mph - N/A   Clear
2:35 AM 35.6 °F 28.0 °F 23.0 °F 60% 29.96 in 10.0 mi NE 10.4 mph - N/A   Clear
2:55 AM 35.6 °F 28.0 °F 23.0 °F 60% 29.95 in 10.0 mi NE 10.4 mph - N/A   Clear
3:15 AM 35.6 °F 28.0 °F 21.2 °F 56% 29.94 in 10.0 mi NE 10.4 mph - N/A   Clear
3:35 AM 35.6 °F 28.0 °F 21.2 °F 56% 29.93 in 10.0 mi NE 10.4 mph - N/A   Clear
3:55 AM 35.6 °F 28.0 °F 21.2 °F 56% 29.92 in 10.0 mi NE 10.4 mph - N/A   Clear
4:15 AM 35.6 °F 28.0 °F 21.2 °F 56% 29.91 in 10.0 mi NE 10.4 mph - N/A   Clear
4:35 AM 35.6 °F 26.6 °F 21.2 °F 56% 29.90 in 10.0 mi NE 13.8 mph - N/A   Clear
4:55 AM 35.6 °F 27.5 °F 21.2 °F 56% 29.89 in 10.0 mi NE 11.5 mph - N/A   Clear
5:15 AM 35.6 °F 27.5 °F 21.2 °F 56% 29.88 in 10.0 mi NE 11.5 mph - N/A   Clear
5:35 AM 35.6 °F 25.5 °F 21.2 °F 56% 29.87 in 10.0 mi NNE 17.3 mph - N/A   Clear
5:55 AM 35.6 °F 25.9 °F 21.2 °F 56% 29.85 in 10.0 mi NE 16.1 mph - N/A   Clear
6:15 AM 35.6 °F 26.6 °F 23.0 °F 60% 29.84 in 10.0 mi NE 13.8 mph - N/A   Clear
6:35 AM 35.6 °F 26.2 °F 23.0 °F 60% 29.83 in 10.0 mi NE 15.0 mph - N/A   Clear
6:55 AM 35.6 °F 26.2 °F 23.0 °F 60% 29.82 in 10.0 mi NE 15.0 mph - N/A   Clear
7:15 AM 35.6 °F 27.5 °F 24.8 °F 65% 29.81 in 10.0 mi NE 11.5 mph 18.4 mph N/A   Clear
7:35 AM 35.6 °F 26.6 °F 21.2 °F 56% 29.80 in 10.0 mi NE 13.8 mph - N/A   Clear
7:55 AM 35.6 °F 25.9 °F 23.0 °F 60% 29.79 in 10.0 mi NE 16.1 mph - N/A   Clear
8:15 AM 37.4 °F 28.2 °F 23.0 °F 56% 29.79 in 10.0 mi NE 16.1 mph 21.9 mph N/A   Clear
8:35 AM 37.4 °F 28.2 °F 24.8 °F 60% 29.78 in 10.0 mi NNE 16.1 mph 21.9 mph N/A   Clear
8:55 AM 37.4 °F 27.2 °F 24.8 °F 60% 29.76 in 10.0 mi NNE 19.6 mph - N/A   Clear
9:15 AM 37.4 °F 28.2 °F 24.8 °F 60% 29.76 in 10.0 mi NNE 16.1 mph 24.2 mph N/A   Clear
9:35 AM 39.2 °F 30.5 °F 24.8 °F 56% 29.75 in 10.0 mi NNE 16.1 mph 21.9 mph N/A   Clear
9:55 AM 41.0 °F 32.2 °F 26.6 °F 57% 29.75 in 10.0 mi NNE 18.4 mph - N/A   Clear
10:15 AM 42.8 °F 35.4 °F 24.8 °F 49% 29.74 in 10.0 mi NNE 15.0 mph - N/A   Clear
10:35 AM 42.8 °F 34.8 °F 26.6 °F 53% 29.73 in 10.0 mi NNE 17.3 mph - N/A   Clear
10:55 AM 44.6 °F 37.4 °F 26.6 °F 49% 29.72 in 10.0 mi NNE 16.1 mph - N/A   Clear
11:15 AM 46.4 °F 39.8 °F 28.4 °F 50% 29.70 in 10.0 mi NE 16.1 mph - N/A   Clear
11:35 AM 46.4 °F 41.1 °F 26.6 °F 46% 29.69 in 10.0 mi NE 11.5 mph - N/A   Clear
11:55 AM 46.4 °F 41.5 °F 26.6 °F 46% 29.69 in 10.0 mi NE 10.4 mph - N/A   Clear
12:15 PM 48.2 °F - 28.4 °F 46% 29.67 in 10.0 mi NE 10.4 mph - N/A   Clear
12:35 PM 48.2 °F - 26.6 °F 43% 29.67 in 10.0 mi NE 11.5 mph - N/A   Clear
12:55 PM 48.2 °F - 26.6 °F 43% 29.66 in 10.0 mi NE 9.2 mph - N/A   Clear
1:15 PM 48.2 °F - 28.4 °F 46% 29.66 in 10.0 mi NE 6.9 mph - N/A   Clear
1:35 PM 50.0 °F - 28.4 °F 43% 29.65 in 10.0 mi ENE 4.6 mph - N/A   Clear
1:55 PM 50.0 °F - 26.6 °F 40% 29.65 in 10.0 mi Calm Calm - N/A   Partly Cloudy
2:15 PM 50.0 °F - 26.6 °F 40% 29.65 in 10.0 mi South 4.6 mph - N/A   Partly Cloudy
2:35 PM 51.8 °F - 28.4 °F 41% 29.65 in 10.0 mi West 4.6 mph - N/A   Mostly Cloudy
2:55 PM 51.8 °F - 28.4 °F 41% 29.64 in 10.0 mi SSE 5.8 mph - N/A   Overcast
3:15 PM 51.8 °F - 30.2 °F 44% 29.62 in 10.0 mi SSE 15.0 mph 19.6 mph N/A   Overcast
3:35 PM 51.8 °F - 32.0 °F 47% 29.62 in 10.0 mi South 16.1 mph 20.7 mph N/A   Overcast
3:55 PM 53.6 °F - 32.0 °F 44% 29.61 in 10.0 mi South 17.3 mph 21.9 mph N/A   Overcast
4:15 PM 53.6 °F - 32.0 °F 44% 29.61 in 10.0 mi South 15.0 mph 18.4 mph N/A   Overcast
4:35 PM 51.8 °F - 32.0 °F 47% 29.61 in 10.0 mi South 11.5 mph 17.3 mph N/A   Overcast
4:55 PM 51.8 °F - 30.2 °F 44% 29.62 in 10.0 mi SSW 10.4 mph - N/A   Overcast
5:15 PM 50.0 °F - 30.2 °F 47% 29.62 in 10.0 mi SW 11.5 mph - N/A   Overcast
5:35 PM 48.2 °F - 33.8 °F 58% 29.61 in 10.0 mi SW 5.8 mph - N/A   Overcast
5:55 PM 48.2 °F - 33.8 °F 58% 29.61 in 10.0 mi SW 4.6 mph - N/A   Overcast
6:15 PM 48.2 °F - 32.0 °F 54% 29.61 in 10.0 mi SW 5.8 mph - N/A   Overcast
6:35 PM 46.4 °F 42.9 °F 33.8 °F 62% 29.60 in 10.0 mi South 6.9 mph - N/A   Overcast
6:55 PM 48.2 °F - 30.2 °F 50% 29.60 in 10.0 mi South 9.2 mph 31.1 mph N/A   Mostly Cloudy
7:15 PM 46.4 °F 42.4 °F 26.6 °F 46% 29.60 in 10.0 mi South 8.1 mph - N/A   Mostly Cloudy
7:35 PM 44.6 °F 39.7 °F 30.2 °F 57% 29.61 in 10.0 mi WSW 9.2 mph - N/A   Partly Cloudy
7:55 PM 42.8 °F 37.5 °F 30.2 °F 61% 29.62 in 10.0 mi WSW 9.2 mph - N/A   Scattered Clouds
8:15 PM 44.6 °F 39.2 °F 30.2 °F 57% 29.62 in 10.0 mi WSW 10.4 mph - N/A   Mostly Cloudy
8:35 PM 44.6 °F 40.2 °F 28.4 °F 53% 29.63 in 10.0 mi SSW 8.1 mph - N/A   Overcast
8:55 PM 46.4 °F 42.4 °F 30.2 °F 53% 29.62 in 10.0 mi SSW 8.1 mph - N/A   Mostly Cloudy
9:15 PM 44.6 °F 40.7 °F 30.2 °F 57% 29.62 in 10.0 mi SSW 6.9 mph - N/A   Mostly Cloudy
9:35 PM 44.6 °F 40.7 °F 30.2 °F 57% 29.62 in 10.0 mi SSW 6.9 mph - N/A   Overcast
9:55 PM 42.8 °F 38.6 °F 30.2 °F 61% 29.61 in 10.0 mi South 6.9 mph - N/A   Mostly Cloudy
10:15 PM 41.0 °F 39.0 °F 32.0 °F 70% 29.61 in 10.0 mi WSW 3.5 mph - N/A   Partly Cloudy
10:35 PM 41.0 °F 33.5 °F 30.2 °F 65% 29.61 in 10.0 mi South 13.8 mph - N/A   Clear
10:55 PM 42.8 °F 36.2 °F 32.0 °F 66% 29.62 in 10.0 mi South 12.7 mph - N/A   Scattered Clouds
11:15 PM 42.8 °F 38.0 °F 33.8 °F 70% 29.61 in 10.0 mi SSW 8.1 mph - N/A   Overcast
11:35 PM 42.8 °F 38.0 °F 32.0 °F 66% 29.61 in 10.0 mi South 8.1 mph - N/A   Mostly Cloudy
11:55 PM 42.8 °F 36.2 °F 33.8 °F 70% 29.60 in 10.0 mi South 12.7 mph - N/A   Overcast